STARLINK-35252, 65850

Orbit data source: Space-Track

STARLINK-35252, 65850 is a payload satellite owned by SpaceX/Seattle (US) in LEO that was launched on Mon, 29 Sep 2025 UTC via an FALCON 9 launch vehicle from the Air Force Western Test Range (AFWTR). Payload-class satellites include a variety of spacecraft equipped with specific instruments for various scientific and technological missions. These include communications satellites like Starlink; space stations such as the ISS; scientific satellites like the Hubble; Earth observation satellites from companies like Planet Labs, Umbra, and HawkEye 360; GPS; miniature CubeSats for education and research; and military/defense satellites.

Loading next visibility...
Identifier
65850, 2025-221AD
Orbit
LEO
Country
Flag of USUS
Related business
Manufacturer
SpaceX/Seattle
Mission
Operational Commercial Communications
Bus & Motor
STARLINK V2MO, Unknown motor
Mass
575 kg wet, ~530 kg dry
Launch date (UTC)
2025-09-29 (9 months ago)
Launch vehicle
FALCON 9
Launch site
Air Force Western Test Range (AFWTR)
Object type
Payload
Rocket body
Debris
Shape & HBR
Box + 2 Pan, 17.7 m
Radar Cross Section
36.964 m², Large (>1 m²)

Expand to show TLE details & history
Last TLE update: 17 hours ago

TLE from 17 hours ago
0 STARLINK-35252
1 65850U 25221AD  26171.14387067  .00017625  00000-0  60565-3 0  9995
2 65850  53.1604 332.8742 0001175  81.7098 278.4036 15.30208139 41761
Epoch: 2026-06-20T03:27Z
TLE epoch observation values (Epoch: 2026-06-20T03:27:10.425Z)
Latitude
-0.00004°
Longitude
12.71801°
Altitude
475.973 km
Speed
7.629 km/s
True Right ascension
22h 11m 29s
True Declination
0° 00' 00"
Sunlit
Object was in full shadow at epoch
Visualization orbit readout
Latitude
Unknown
Longitude
Unknown
Altitude
Unknown
Speed
Unknown
Apparent Right ascension
Unknown
Apparent Declination
Unknown
Sunlit
N/A
Visualization observer readout
Local Sidereal Time
07:24:00
Azimuth
Unknown
Elevation
Unknown
Doppler factor
Unknown
Orbital elements
Apogee altitude
476.252 km
Perigee altitude
474.642 km
Semi-major axis
6,853.584 km
Eccentricity
0.00012
Inclination
53.1604°
RAAN
332.8742°
Arg. of periapsis
81.7098°
True anomaly
278.39028°
Mean anomaly
278.4036°
Eccentric anomaly
278.39694°
Mean motion
3.82531 °/min
Orbital period
94.11 mins
BSTAR
0.00060565
Loading maneuver chart data...
Computing Atmospheric mass density...
Loading historical data...
Loading historical data...
Loading historical data...
Loading historical data...
Loading historical data...
Loading historical data...
Loading historical data...

Documentation

Showing up to 5 results
|